Location: Castelnau
(43.6639°N, 0.8431°W)
Time: 22:15:26
(UTC+00:00)

RUBIN 8/PSLV - Pass Details

Date: 13 January 2026
Orbit: 593 x 628 km, 98.1° (Epoch: 10 February)

Event Time Altitude Azimuth Distance (km) Brightness Sun altitude
Rises 05:39:06 0° 13° (NNE) 2,842 8.0 -20.4°
Reaches altitude 10° 05:41:16 10° 15° (NNE) 1,935 7.1 -20.0°
Maximum altitude 05:45:28 83° 103° (ESE) 604 4.5 -19.3°
Drops below altitude 10° 05:49:39 10° 192° (SSW) 1,924 7.1 -18.6°
Sets 05:51:48 0° 193° (SSW) 2,825 8.0 -18.2°
